Vorticity
20 13 16 11 9 7 18 9 13 12 11 11 8 9 11 11 16 11 10 7 8 8 7 9 -2 -0 14 3 -4 5 1 11 -13 11 2 2 18 13 27 -5 19 13 8
5 21 15 -1 17 10 14 22 22 17 12 15 17 14 14 13 12 18 14 8 11 8 8 7 7 11 2 -1 7 2 4 12 -3 -19 -20 2 -10 21 4 11 2 8 9
11 13 21 11 8 2 -11 45 55 25 28 25 24 18 24 28 18 22 17 16 12 4 0 0 -2 -1 1 -24 7 5 9 3 5 27 28 29 4 8 -2 25 5 8 1
15 16 20 14 16 12 41 49 52 54 43 45 13 16 9 17 20 18 21 18 20 16 14 18 14 16 21 11 11 7 5 10 3 12 3 3 9 17 20 22 8 6 -1
18 13 13 26 -1 31 30 15 13 23 8 9 37 3 46 30 34 29 37 20 18 17 19 11 19 7 13 10 9 -6 20 -9 22 2 4 16 17 22 4 5 9 14 12
10 1 8 12 4 32 32 7 15 23 23 28 31 22 32 30 30 19 12 12 12 14 16 14 7 15 5 6 -8 7 10 10 20 55 36 -2 -1 2 13 10 5 4 3
5 10 14 14 4 11 30 21 3 34 29 31 33 19 21 19 18 18 17 17 13 16 -7 30 16 14 2 23 5 4 19 24 1 11 13 11 10 4 3 2 1 1 3
3 12 5 4 16 13 6 38 25 6 18 27 20 20 7 9 8 10 12 14 18 -9 -4 1 10 -6 5 15 18 16 16 13 10 8 5 1 2 4 4 3 4 11 21
7 12 13 7 6 14 17 6 22 32 20 7 38 34 21 34 2 23 -0 33 5 8 13 13 6 -18 9 6 10 10 8 4 3 4 7 7 6 5 10 18 20 18 24
-0 8 7 10 12 16 2 14 3 8 10 21 8 11 2 1 9 2 2 8 -5 5 20 0 23 14 7 11 10 6 7 7 5 4 7 9 13 16 18 23 37 55 53
8 8 11 12 7 9 10 16 24 5 6 35 16 25 28 28 27 26 18 21 12 12 17 12 15 8 6 4 2 3 6 8 13 12 14 19 26 33 44 43 28 11 7
11 10 5 3 5 8 10 8 7 8 7 7 6 8 7 6 4 5 6 8 10 10 8 6 5 5 5 5 6 5 7 8 14 19 29 33 34 25 15 10 5 6 8
5 5 5 6 8 8 7 8 9 8 8 7 8 9 10 11 11 9 8 7 7 5 3 3 4 3 4 2 6 6 7 25 32 29 23 17 13 9 6 9 12 13 14
6 5 6 8 8 8 10 11 9 8 10 11 10 10 8 6 6 6 5 5 4 3 5 6 5 7 3 7 6 6 27 30 20 17 12 11 14 15 17 17 14 13 13
6 6 8 8 9 9 10 10 10 10 10 11 10 8 7 7 7 6 7 6 5 7 7 6 7 2 5 3 7 38 27 18 12 12 9 11 16 14 13 12 11 10 12
5 6 8 7 10 10 10 8 8 12 12 8 7 7 5 8 7 7 6 7 7 10 7 8 2 5 2 5 41 29 14 11 12 11 14 15 14 12 11 11 11 14 11
5 6 7 7 9 10 8 9 7 8 9 8 7 7 6 7 8 8 8 10 7 5 12 13 2 1 2 33 41 13 11 13 17 18 18 17 16 12 11 11 11 10 13
5 5 5 6 8 11 10 8 7 6 7 8 8 9 8 7 10 7 8 7 10 8 10 6 -1 1 27 42 18 9 10 7 5 8 13 16 17 16 13 11 15 15 9
4 5 4 6 7 9 9 9 8 8 7 7 7 8 10 8 9 7 10 4 8 6 14 5 -2 23 44 26 7 11 8 3 2 4 6 6 7 14 14 17 11 5 13
7 6 3 7 6 9 8 7 7 8 8 10 8 8 10 9 10 8 11 11 7 10 8 2 12 42 34 16 5 11 7 3 0 -1 1 5 10 6 6 15 12 13 10
8 6 2 7 5 6 8 7 6 6 8 11 10 8 9 10 10 10 13 4 7 6 6 -2 39 39 19 9 6 8 11 5 2 2 2 4 7 8 7 7 11 13 11
8 5 3 5 7 5 5 7 7 7 8 10 9 9 9 11 10 14 6 3 9 5 -8 38 34 24 15 9 6 6 5 9 8 6 6 3 6 10 6 10 9 12 12
10 7 3 5 9 9 7 7 7 9 10 10 9 10 12 11 11 8 4 12 4 1 23 34 21 18 15 11 8 7 8 9 10 7 5 5 8 8 8 10 11 14 14
11 11 3 6 7 9 9 7 8 8 11 10 10 11 12 11 8 4 13 3 6 7 32 24 17 15 15 14 13 12 11 10 9 8 9 7 7 8 7 11 13 18 16
18 8 5 7 9 10 8 8 8 10 10 10 10 10 11 10 4 9 6 7 1 28 20 20 19 13 12 13 14 14 13 12 12 9 7 9 10 5 8 16 25 18 16
9 5 6 9 11 8 8 10 10 11 11 10 8 10 10 9 11 8 5 3 19 23 13 17 25 27 23 17 14 13 13 13 13 14 13 9 5 12 21 27 19 17 19
Height
5686 5682 5679 5675 5671 5667 5662 5656 5649 5644 5641 5640 5640 5643 5646 5652 5656 5660 5663 5667 5671 5674 5676 5682 5672 5678 5672 5676 5678 5676 5675 5675 5671 5668 5662 5660 5657 5654 5649 5646 5643 5640 5636
5675 5671 5668 5665 5660 5653 5645 5637 5628 5621 5618 5618 5620 5622 5626 5631 5637 5643 5648 5652 5655 5660 5663 5667 5669 5670 5669 5665 5665 5665 5662 5660 5658 5654 5648 5644 5643 5637 5633 5630 5626 5621 5617
5665 5661 5657 5652 5645 5637 5624 5610 5601 5597 5597 5599 5601 5604 5607 5611 5617 5623 5630 5636 5642 5646 5650 5652 5654 5657 5657 5650 5650 5652 5649 5645 5642 5636 5633 5629 5626 5621 5617 5612 5608 5603 5599
5655 5651 5646 5641 5633 5624 5606 5590 5583 5581 5581 5583 5585 5589 5592 5595 5600 5607 5613 5621 5628 5634 5637 5639 5641 5643 5644 5642 5640 5638 5634 5630 5625 5622 5619 5615 5609 5604 5598 5594 5591 5584 5580
5647 5643 5637 5632 5624 5612 5598 5588 5581 5578 5576 5576 5576 5579 5580 5583 5587 5593 5599 5606 5614 5620 5625 5628 5630 5630 5630 5628 5623 5623 5620 5615 5609 5605 5601 5596 5591 5586 5580 5577 5572 5566 5561
5641 5637 5631 5624 5616 5605 5594 5586 5580 5574 5570 5569 5570 5572 5574 5576 5579 5582 5589 5596 5603 5609 5614 5616 5618 5619 5618 5615 5612 5610 5606 5601 5595 5589 5584 5581 5575 5569 5564 5559 5553 5548 5542
5636 5632 5626 5618 5610 5599 5591 5585 5580 5573 5568 5566 5566 5567 5569 5571 5573 5577 5582 5589 5595 5600 5602 5604 5604 5606 5606 5602 5599 5595 5592 5585 5579 5574 5569 5564 5560 5554 5548 5541 5532 5525 5518
5630 5625 5620 5614 5607 5598 5589 5583 5578 5574 5569 5565 5563 5564 5566 5567 5570 5573 5579 5584 5589 5592 5595 5596 5596 5596 5593 5590 5585 5582 5576 5571 5568 5562 5556 5550 5543 5536 5529 5521 5511 5502 5493
5625 5621 5617 5611 5605 5598 5591 5584 5578 5573 5570 5567 5564 5564 5565 5569 5569 5574 5577 5580 5583 5587 5587 5586 5586 5586 5582 5578 5574 5570 5566 5560 5553 5546 5539 5531 5524 5515 5506 5497 5486 5478 5470
5621 5618 5614 5609 5604 5598 5591 5586 5582 5578 5573 5570 5568 5568 5568 5569 5570 5573 5575 5578 5580 5580 5579 5579 5577 5575 5572 5568 5564 5559 5554 5545 5537 5529 5521 5513 5504 5494 5485 5476 5467 5458 5453
5619 5615 5611 5607 5602 5597 5592 5587 5583 5580 5576 5572 5571 5570 5570 5570 5571 5572 5574 5575 5574 5573 5571 5570 5570 5565 5561 5558 5552 5546 5538 5530 5521 5511 5502 5493 5484 5475 5467 5459 5453 5449 5445
5616 5613 5610 5605 5602 5598 5593 5589 5585 5582 5579 5576 5574 5573 5572 5571 5571 5570 5570 5569 5569 5568 5566 5563 5559 5556 5552 5546 5539 5532 5524 5515 5504 5494 5485 5476 5468 5461 5455 5450 5446 5441 5437
5614 5611 5608 5605 5601 5597 5593 5590 5587 5584 5581 5578 5576 5573 5572 5571 5569 5568 5567 5565 5562 5559 5557 5554 5551 5546 5541 5534 5526 5517 5508 5498 5488 5479 5471 5465 5459 5452 5447 5442 5437 5432 5427
5612 5610 5607 5603 5600 5596 5592 5589 5586 5583 5580 5577 5575 5572 5570 5568 5566 5564 5562 5559 5556 5553 5550 5546 5542 5536 5529 5521 5511 5501 5490 5481 5474 5467 5462 5456 5450 5444 5439 5433 5427 5422 5416
5610 5607 5604 5601 5597 5594 5590 5587 5583 5580 5577 5574 5572 5570 5568 5566 5563 5559 5557 5554 5550 5546 5541 5536 5530 5523 5515 5506 5496 5485 5477 5471 5464 5458 5452 5446 5440 5433 5427 5422 5417 5413 5409
5606 5604 5602 5598 5594 5591 5587 5584 5581 5578 5576 5573 5570 5567 5565 5562 5558 5555 5551 5546 5541 5536 5531 5525 5518 5511 5502 5491 5481 5473 5467 5462 5455 5449 5443 5436 5430 5425 5419 5414 5410 5405 5401
5602 5600 5598 5594 5591 5587 5584 5581 5579 5575 5572 5569 5566 5562 5559 5555 5551 5547 5542 5537 5532 5527 5521 5513 5506 5498 5488 5478 5470 5464 5458 5452 5446 5440 5434 5428 5422 5417 5412 5406 5401 5397 5392
5598 5596 5594 5590 5587 5584 5581 5578 5575 5571 5568 5564 5560 5556 5552 5548 5544 5539 5533 5528 5523 5516 5510 5502 5494 5484 5474 5465 5459 5455 5450 5444 5439 5433 5427 5421 5415 5410 5404 5399 5393 5388 5383
5592 5591 5589 5586 5582 5579 5576 5573 5570 5566 5563 5559 5555 5550 5545 5541 5536 5530 5524 5519 5513 5506 5498 5490 5481 5470 5460 5455 5451 5447 5442 5436 5432 5426 5420 5415 5409 5403 5397 5391 5385 5379 5374
5586 5585 5583 5581 5577 5574 5571 5568 5565 5561 5557 5553 5548 5543 5537 5532 5527 5521 5515 5509 5502 5495 5487 5478 5468 5457 5449 5445 5442 5438 5433 5428 5423 5418 5413 5407 5402 5396 5390 5383 5377 5371 5365
5579 5578 5577 5575 5572 5569 5566 5562 5558 5555 5550 5545 5540 5535 5529 5524 5518 5512 5506 5500 5492 5484 5475 5466 5455 5446 5441 5437 5433 5429 5424 5420 5415 5409 5404 5399 5393 5387 5381 5375 5368 5361 5355
5572 5571 5570 5568 5565 5562 5559 5556 5551 5547 5542 5537 5532 5527 5521 5515 5509 5503 5497 5490 5482 5473 5463 5453 5443 5437 5432 5428 5423 5419 5414 5410 5405 5399 5394 5389 5383 5376 5371 5364 5358 5351 5345
5565 5564 5563 5561 5559 5556 5552 5549 5544 5540 5535 5530 5525 5519 5513 5507 5502 5495 5488 5480 5472 5462 5451 5441 5434 5428 5423 5418 5413 5408 5403 5398 5393 5388 5384 5378 5372 5365 5359 5353 5346 5340 5335
5558 5557 5556 5554 5551 5548 5545 5541 5537 5533 5528 5523 5517 5511 5505 5500 5493 5486 5479 5471 5462 5451 5440 5432 5425 5419 5413 5407 5402 5397 5392 5387 5382 5377 5372 5367 5361 5354 5348 5341 5334 5329 5324
5551 5550 5549 5547 5544 5541 5538 5534 5529 5525 5520 5515 5510 5504 5498 5492 5485 5478 5470 5461 5452 5441 5431 5422 5415 5408 5401 5394 5389 5383 5378 5374 5369 5364 5360 5355 5349 5343 5337 5330 5324 5320 5315
5544 5543 5542 5539 5537 5534 5530 5526 5522 5518 5513 5508 5502 5496 5490 5484 5477 5469 5461 5452 5443 5432 5422 5413 5404 5396 5389 5382 5376 5370 5365 5360 5356 5350 5345 5341 5336 5330 5324 5319 5315 5311 5307